Havbugvin — XPYL — position and weather

sailwx.info

Track history (hours):
 
Tides and Currents Weather Stations Pressure Air Temp Water Temp Dewpoint Dewpoint Depression Visibility Wind Speed Wind Dir Waves Ship Positions

Havbugvin

Last reported at 2016-Sep-01 09:11 UTC. Time now 2016-Dec-04 16:22 UTC.
Position N 61°25' W 007°40'.
Warning: this ship's position is months out of date.

Length 38 m.

Type: Fishing. MMSI: 231181000.

Date/timePositionNaut miles runAvg speedWind from/ knotsBaromVisibWave heightAir tempDewpointWater temp
2016-Sep-01 09:11N 61°25' W 007°40'5 7.5
2016-Sep-01 08:34N 61°27' W 007°49'8 8.3
2016-Sep-01 07:33N 61°32' W 008°04'4 4.4
2016-Sep-01 06:34N 61°33' W 008°12'2 1.8
2016-Sep-01 05:33N 61°32' W 008°11'1 1.4
2016-Sep-01 04:34N 61°30' W 008°10'2 1.6
2016-Sep-01 03:34N 61°29' W 008°07'1 1.5
2016-Sep-01 02:34N 61°29' W 008°04'1 0.6
2016-Sep-01 01:34N 61°29' W 008°03'6 5.8
2016-Sep-01 00:33N 61°33' W 008°12'2 2.0
2016-Aug-31 23:34N 61°35' W 008°12'1 1.1
2016-Aug-31 22:34N 61°35' W 008°15'1 1.2
2016-Aug-31 21:33N 61°34' W 008°15'1 1.4
2016-Aug-31 20:33N 61°32' W 008°14'1 1.4
2016-Aug-31 19:33N 61°31' W 008°13'1 1.3
2016-Aug-31 18:34N 61°30' W 008°12'1 1.4
2016-Aug-31 17:33N 61°29' W 008°10'2 1.6
2016-Aug-31 16:33N 61°28' W 008°08'1 0.9
2016-Aug-31 15:34N 61°29' W 008°07'2 1.6
2016-Aug-31 14:34N 61°30' W 008°09'2 1.7
2016-Aug-31 13:33N 61°31' W 008°12'2 1.7
2016-Aug-31 12:33N 61°33' W 008°13'1 1.2
2016-Aug-31 11:33N 61°34' W 008°13'3 3.0
2016-Aug-31 10:33N 61°31' W 008°13'2 1.6
2016-Aug-31 09:33N 61°30' W 008°10'7 6.8
2016-Aug-31 08:33N 61°37' W 008°13'7 7.0
2016-Aug-31 07:33N 61°43' W 008°17'1 1.2
2016-Aug-31 06:34N 61°42' W 008°18'1 1.3
2016-Aug-31 05:34N 61°41' W 008°20'1 1.3
2016-Aug-31 04:33N 61°42' W 008°22'1 1.4
2016-Aug-31 03:33N 61°43' W 008°24'1 1.3
2016-Aug-31 02:34N 61°44' W 008°26'2 1.5
2016-Aug-31 01:34N 61°46' W 008°28'1 0.8
2016-Aug-31 00:33N 61°46' W 008°26'5 4.9
2016-Aug-30 23:33N 61°41' W 008°20'7 7.0
2016-Aug-30 22:33N 61°47' W 008°29'8 7.7
2016-Aug-30 21:34N 61°54' W 008°37'7 7.0
2016-Aug-30 20:33N 61°59' W 008°46'1 1.0
2016-Aug-30 19:34N 61°58' W 008°46'1 1.5
2016-Aug-30 18:33N 61°57' W 008°45'1 1.3
2016-Aug-30 17:33N 61°56' W 008°44'1 0.9
2016-Aug-30 16:33N 61°55' W 008°42'1 1.4
2016-Aug-30 15:33N 61°57' W 008°43'2 1.6
2016-Aug-30 14:34N 61°58' W 008°44'1 1.3
2016-Aug-30 13:34N 61°59' W 008°45'2 1.9
2016-Aug-30 12:33N 62°01' W 008°45'1 1.2
2016-Aug-30 11:34N 62°02' W 008°46'6 6.2
2016-Aug-30 10:33N 61°56' W 008°43'5 5.1
2016-Aug-30 09:34N 62°01' W 008°45'7 7.0
2016-Aug-30 08:34N 62°08' W 008°47'7 7.0
2016-Aug-30 07:34N 62°15' W 008°50'1 0.6
2016-Aug-30 06:33N 62°15' W 008°52'1 0.6
2016-Aug-30 05:34N 62°16' W 008°51'1 1.1
2016-Aug-30 04:33N 62°17' W 008°50'1 1.2
2016-Aug-30 03:33N 62°18' W 008°49'1 1.4
2016-Aug-30 02:33N 62°19' W 008°48'1 1.4
2016-Aug-30 01:33N 62°20' W 008°46'2 1.6
2016-Aug-30 00:33N 62°21' W 008°44'2 1.5
2016-Aug-29 23:33N 62°22' W 008°42'1 1.4
2016-Aug-29 22:34N 62°23' W 008°39'1 0.9
2016-Aug-29 21:33N 62°23' W 008°37'1 1.4
2016-Aug-29 20:33N 62°22' W 008°39'1 1.1
2016-Aug-29 19:34N 62°22' W 008°41'2 1.9
2016-Aug-29 18:34N 62°20' W 008°43'2 1.8
2016-Aug-29 17:34N 62°19' W 008°46'2 1.8
2016-Aug-29 16:33N 62°17' W 008°48'5 4.6
2016-Aug-29 15:34N 62°13' W 008°54'1 1.3
2016-Aug-29 14:32N 62°13' W 008°51'1 1.2
2016-Aug-29 13:33N 62°13' W 008°54'2 1.6
2016-Aug-29 12:34N 62°14' W 008°51'2 1.6
2016-Aug-29 11:33N 62°15' W 008°49'1 1.3
2016-Aug-29 10:30N 62°16' W 008°49'4 4.1
2016-Aug-29 09:34N 62°20' W 008°45'2 2.4
2016-Aug-29 08:33N 62°22' W 008°43'9 8.6
2016-Aug-29 07:33N 62°15' W 008°53'2 2.4
2016-Aug-29 06:33N 62°16' W 008°50'6 5.8
2016-Aug-29 05:33N 62°10' W 008°50'2 1.6
2016-Aug-29 04:33N 62°09' W 008°50'2 1.6
2016-Aug-29 03:34N 62°07' W 008°49'2 1.6
2016-Aug-29 02:34N 62°06' W 008°49'2 1.6
2016-Aug-29 01:34N 62°04' W 008°48'3 3.2
2016-Aug-29 00:33N 62°07' W 008°49'4 3.8
2016-Aug-28 23:33N 62°11' W 008°51'0 0.0
2016-Aug-28 22:33N 62°11' W 008°51'1 0.9
2016-Aug-28 21:33N 62°10' W 008°53'1 1.4
2016-Aug-28 20:33N 62°09' W 008°52'1 1.3
2016-Aug-28 19:33N 62°08' W 008°52'1 1.4
2016-Aug-28 18:33N 62°06' W 008°51'1 1.4
2016-Aug-28 17:33N 62°05' W 008°50'2 1.6
2016-Aug-28 16:33N 62°04' W 008°50'2 1.5
2016-Aug-28 15:34N 62°02' W 008°48'2 1.6
2016-Aug-28 14:34N 62°01' W 008°48'2 1.6
2016-Aug-28 13:33N 61°59' W 008°47'1 1.2
2016-Aug-28 12:33N 61°59' W 008°44'1 1.2
2016-Aug-28 11:33N 62°00' W 008°45'2 1.7
2016-Aug-28 10:33N 62°02' W 008°46'1 1.2
2016-Aug-28 09:33N 62°03' W 008°47'7 7.4
2016-Aug-28 08:33N 62°10' W 008°50'5 5.1
2016-Aug-28 07:33N 62°05' W 008°50'7 6.6
2016-Aug-28 06:33N 61°59' W 008°44'1 0.5
2016-Aug-28 05:34N 61°59' W 008°45'3 2.7
2016-Aug-28 04:34N 61°57' W 008°43'2 1.6
2016-Aug-28 03:33N 61°56' W 008°41'2 1.6
2016-Aug-28 02:33N 61°54' W 008°40'2 1.7
2016-Aug-28 01:33N 61°53' W 008°38'2 2.3
2016-Aug-28 00:33N 61°55' W 008°40'0 0.2
2016-Aug-27 23:34N 61°55' W 008°40'1 1.2
2016-Aug-27 22:34N 61°56' W 008°41'2 1.5
2016-Aug-27 21:33N 61°57' W 008°43'1 1.2
2016-Aug-27 20:34N 61°58' W 008°44'1 1.2
2016-Aug-27 19:33N 61°57' W 008°45'1 1.4
2016-Aug-27 18:34N 61°56' W 008°44'1 1.3
2016-Aug-27 17:33N 61°55' W 008°42'2 1.6
2016-Aug-27 16:34N 61°53' W 008°40'2 1.7
2016-Aug-27 15:33N 61°52' W 008°39'2 1.7
2016-Aug-27 14:34N 61°50' W 008°37'2 1.7
2016-Aug-27 13:33N 61°49' W 008°35'2 1.6
2016-Aug-27 12:33N 61°48' W 008°33'1 1.2
2016-Aug-27 11:33N 61°47' W 008°31'1 1.0
2016-Aug-27 10:33N 61°48' W 008°31'1 1.4
2016-Aug-27 09:33N 61°49' W 008°33'2 1.7
2016-Aug-27 08:34N 61°51' W 008°35'4 3.6
2016-Aug-27 07:34N 61°54' W 008°39'4 4.1
2016-Aug-27 06:33N 61°57' W 008°44'8 4.1
2016-Aug-27 04:33N 61°50' W 008°34'6 6.0
2016-Aug-27 03:34N 61°46' W 008°26'9 8.9
2016-Aug-27 02:33N 61°39' W 008°12'9 9.0
2016-Aug-27 01:33N 61°33' W 007°58'8 7.8
2016-Aug-27 00:34N 61°28' W 007°46'1 1.2
2016-Aug-26 23:33N 61°29' W 007°45'2 1.7
2016-Aug-26 22:34N 61°30' W 007°43'2 1.7
2016-Aug-26 21:34N 61°32' W 007°41'1 1.5
2016-Aug-26 20:33N 61°32' W 007°38'1 1.5
2016-Aug-26 19:34N 61°31' W 007°35'1 1.2
2016-Aug-26 18:34N 61°30' W 007°35'2 1.7
2016-Aug-26 17:33N 61°29' W 007°37'1 1.4
2016-Aug-26 16:33N 61°27' W 007°38'1 1.2
2016-Aug-26 15:34N 61°27' W 007°40'1 1.2
2016-Aug-26 14:33N 61°28' W 007°41'2 1.6
2016-Aug-26 13:33N 61°29' W 007°39'2 1.6
2016-Aug-26 12:33N 61°31' W 007°38'1 1.1
2016-Aug-26 11:33N 61°32' W 007°39'2 1.5
2016-Aug-26 10:34N 61°30' W 007°40'2 1.6
2016-Aug-26 09:33N 61°29' W 007°42'1 1.5
2016-Aug-26 08:33N 61°28' W 007°43'2 1.5
2016-Aug-26 07:34N 61°26' W 007°45'4 3.5
2016-Aug-26 06:33N 61°30' W 007°44'2 1.1
2016-Aug-26 04:33N 61°29' W 007°40'2 1.5
2016-Aug-26 03:33N 61°29' W 007°43'2 1.9
2016-Aug-26 02:33N 61°28' W 007°47'1 0.5
2016-Aug-26 01:33N 61°28' W 007°47'1 1.0
2016-Aug-26 00:34N 61°28' W 007°46'2 1.5
2016-Aug-25 23:34N 61°27' W 007°43'2 1.6
2016-Aug-25 22:33N 61°26' W 007°41'2 1.5
2016-Aug-25 21:33N 61°25' W 007°38'1 1.3
2016-Aug-25 20:33N 61°24' W 007°36'1 0.9
2016-Aug-25 19:33N 61°24' W 007°34'2 1.6
2016-Aug-25 18:34N 61°23' W 007°31'2 1.6
2016-Aug-25 17:33N 61°22' W 007°29'1 1.5
2016-Aug-25 16:33N 61°22' W 007°26'1 1.2
2016-Aug-25 15:33N 61°23' W 007°26'1 1.5
2016-Aug-25 14:33N 61°24' W 007°29'1 1.5
2016-Aug-25 13:33N 61°24' W 007°32'2 1.6
2016-Aug-25 12:33N 61°25' W 007°34'1 1.4
2016-Aug-25 11:34N 61°26' W 007°37'1 1.4
2016-Aug-25 10:33N 61°27' W 007°39'2 1.6
2016-Aug-25 09:33N 61°28' W 007°42'2 1.6
2016-Aug-25 08:33N 61°29' W 007°45'2 1.7
2016-Aug-25 07:33N 61°29' W 007°48'4 3.9
2016-Aug-25 06:33N 61°27' W 007°42'4 2.0
2016-Aug-25 04:33N 61°25' W 007°34'8 7.8
2016-Aug-25 03:34N 61°29' W 007°48'3 2.9
2016-Aug-25 02:34N 61°27' W 007°52'1 1.1
2016-Aug-25 01:33N 61°27' W 007°50'1 1.4
2016-Aug-25 00:33N 61°27' W 007°47'1 1.3
2016-Aug-24 23:33N 61°27' W 007°44'1 1.4
2016-Aug-24 22:33N 61°26' W 007°42'1 1.4
2016-Aug-24 21:34N 61°25' W 007°39'1 1.3
2016-Aug-24 20:33N 61°24' W 007°37'1 0.8
2016-Aug-24 19:34N 61°24' W 007°39'1 1.3
2016-Aug-24 18:34N 61°24' W 007°41'1 1.4
2016-Aug-24 17:33N 61°25' W 007°44'1 1.4
2016-Aug-24 16:33N 61°26' W 007°47'2 1.5
2016-Aug-24 15:34N 61°27' W 007°49'1 1.3
2016-Aug-24 14:34N 61°28' W 007°51'7 7.3
2016-Aug-24 13:33N 61°24' W 007°38'7 7.1
2016-Aug-24 12:33N 61°28' W 007°50'8 8.1
2016-Aug-24 11:34N 61°35' W 007°53'7 7.3
2016-Aug-24 10:34N 61°42' W 007°57'8 7.5
2016-Aug-24 09:34N 61°50' W 008°02'1 0.9
2016-Aug-24 08:33N 61°50' W 008°01'0 0.2
2016-Aug-24 07:34N 61°50' W 008°01'0 0.3
2016-Aug-24 06:33N 61°50' W 008°01'0 0.2
2016-Aug-24 04:33N 61°50' W 008°01'0 0.4
2016-Aug-24 03:34N 61°50' W 008°01'1 0.6
2016-Aug-24 02:34N 61°50' W 008°00'0 0.3
2016-Aug-24 01:33N 61°50' W 008°00'1 0.5
2016-Aug-24 00:34N 61°50' W 008°02'2 2.0
2016-Aug-23 23:34N 61°50' W 007°57'8 7.7
2016-Aug-23 22:33N 61°52' W 007°41'8 7.9
2016-Aug-23 21:34N 61°54' W 007°25'8 8.1
2016-Aug-23 20:34N 61°55' W 007°08'9 8.6
2016-Aug-23 19:33N 61°55' W 006°50'5 5.4
2016-Aug-23 18:33N 62°00' W 006°46'0 0.0
2016-Aug-23 17:34N 62°00' W 006°46'0 0.0
2016-Aug-23 16:33N 62°00' W 006°46'0 0.0
2016-Aug-23 15:33N 62°00' W 006°46'0 0.0
2016-Aug-23 14:33N 62°00' W 006°46'0 0.0
2016-Aug-23 13:33N 62°00' W 006°46'0 0.0
2016-Aug-23 12:34N 62°00' W 006°46'0 0.2
2016-Aug-23 11:33N 62°00' W 006°46'0 0.0
2016-Aug-23 10:33N 62°00' W 006°46'0 0.0
2016-Aug-23 09:33N 62°00' W 006°46'0 0.0
2016-Aug-23 08:34N 62°00' W 006°46'0 0.0
2016-Aug-23 07:34N 62°00' W 006°46'0 0.0
2016-Aug-23 06:33N 62°00' W 006°46'0 0.0
2016-Aug-23 05:34N 62°00' W 006°46'0 0.0
2016-Aug-23 04:33N 62°00' W 006°46'0 0.0
2016-Aug-23 03:33N 62°00' W 006°46'0 0.0
2016-Aug-23 02:33N 62°00' W 006°46'0 0.0
2016-Aug-23 01:33N 62°00' W 006°46'0 0.0
2016-Aug-23 00:33N 62°00' W 006°46'0 0.0
2016-Aug-22 23:33N 62°00' W 006°46'0 0.0
2016-Aug-22 22:34N 62°00' W 006°46'0 0.0
2016-Aug-22 21:33N 62°00' W 006°46'0 0.0
2016-Aug-22 20:33N 62°00' W 006°46'0 0.0
2016-Aug-22 19:34N 62°00' W 006°46'0 0.0
2016-Aug-22 18:34N 62°00' W 006°46'0 0.0
2016-Aug-22 17:33N 62°00' W 006°46'0 0.0
2016-Aug-22 16:34N 62°00' W 006°46'0 0.0
2016-Aug-22 15:33N 62°00' W 006°46'0 0.0
2016-Aug-22 14:33N 62°00' W 006°46'0 0.0
2016-Aug-22 13:33N 62°00' W 006°46'0 0.0
2016-Aug-22 12:33N 62°00' W 006°46'0 0.0
2016-Aug-22 11:33N 62°00' W 006°46'0 0.0
2016-Aug-22 10:33N 62°00' W 006°46'0 0.0
2016-Aug-22 09:33N 62°00' W 006°46'  
Track history (hours):
 
Tides and Currents Weather Stations Pressure Air Temp Water Temp Dewpoint Dewpoint Depression Visibility Wind Speed Wind Dir Waves Ship Positions

Havbugvin

Last reported at 2016-Sep-01 09:11 UTC. Time now 2016-Dec-04 16:22 UTC.
Position N 61°25' W 007°40'.
Warning: this ship's position is months out of date.

Length 38 m.

Type: Fishing. MMSI: 231181000.

Date/timePositionNaut miles runAvg speedWind from/ knotsBaromVisibWave heightAir tempDewpointWater temp
2016-Sep-01 09:11N 61°25' W 007°40'5 7.5
2016-Sep-01 08:34N 61°27' W 007°49'8 8.3
2016-Sep-01 07:33N 61°32' W 008°04'4 4.4
2016-Sep-01 06:34N 61°33' W 008°12'2 1.8
2016-Sep-01 05:33N 61°32' W 008°11'1 1.4
2016-Sep-01 04:34N 61°30' W 008°10'2 1.6
2016-Sep-01 03:34N 61°29' W 008°07'1 1.5
2016-Sep-01 02:34N 61°29' W 008°04'1 0.6
2016-Sep-01 01:34N 61°29' W 008°03'6 5.8
2016-Sep-01 00:33N 61°33' W 008°12'2 2.0
2016-Aug-31 23:34N 61°35' W 008°12'1 1.1
2016-Aug-31 22:34N 61°35' W 008°15'1 1.2
2016-Aug-31 21:33N 61°34' W 008°15'1 1.4
2016-Aug-31 20:33N 61°32' W 008°14'1 1.4
2016-Aug-31 19:33N 61°31' W 008°13'1 1.3
2016-Aug-31 18:34N 61°30' W 008°12'1 1.4
2016-Aug-31 17:33N 61°29' W 008°10'2 1.6
2016-Aug-31 16:33N 61°28' W 008°08'1 0.9
2016-Aug-31 15:34N 61°29' W 008°07'2 1.6
2016-Aug-31 14:34N 61°30' W 008°09'2 1.7
2016-Aug-31 13:33N 61°31' W 008°12'2 1.7
2016-Aug-31 12:33N 61°33' W 008°13'1 1.2
2016-Aug-31 11:33N 61°34' W 008°13'3 3.0
2016-Aug-31 10:33N 61°31' W 008°13'2 1.6
2016-Aug-31 09:33N 61°30' W 008°10'7 6.8
2016-Aug-31 08:33N 61°37' W 008°13'7 7.0
2016-Aug-31 07:33N 61°43' W 008°17'1 1.2
2016-Aug-31 06:34N 61°42' W 008°18'1 1.3
2016-Aug-31 05:34N 61°41' W 008°20'1 1.3
2016-Aug-31 04:33N 61°42' W 008°22'1 1.4
2016-Aug-31 03:33N 61°43' W 008°24'1 1.3
2016-Aug-31 02:34N 61°44' W 008°26'2 1.5
2016-Aug-31 01:34N 61°46' W 008°28'1 0.8
2016-Aug-31 00:33N 61°46' W 008°26'5 4.9
2016-Aug-30 23:33N 61°41' W 008°20'7 7.0
2016-Aug-30 22:33N 61°47' W 008°29'8 7.7
2016-Aug-30 21:34N 61°54' W 008°37'7 7.0
2016-Aug-30 20:33N 61°59' W 008°46'1 1.0
2016-Aug-30 19:34N 61°58' W 008°46'1 1.5
2016-Aug-30 18:33N 61°57' W 008°45'1 1.3
2016-Aug-30 17:33N 61°56' W 008°44'1 0.9
2016-Aug-30 16:33N 61°55' W 008°42'1 1.4
2016-Aug-30 15:33N 61°57' W 008°43'2 1.6
2016-Aug-30 14:34N 61°58' W 008°44'1 1.3
2016-Aug-30 13:34N 61°59' W 008°45'2 1.9
2016-Aug-30 12:33N 62°01' W 008°45'1 1.2
2016-Aug-30 11:34N 62°02' W 008°46'6 6.2
2016-Aug-30 10:33N 61°56' W 008°43'5 5.1
2016-Aug-30 09:34N 62°01' W 008°45'7 7.0
2016-Aug-30 08:34N 62°08' W 008°47'7 7.0
2016-Aug-30 07:34N 62°15' W 008°50'1 0.6
2016-Aug-30 06:33N 62°15' W 008°52'1 0.6
2016-Aug-30 05:34N 62°16' W 008°51'1 1.1
2016-Aug-30 04:33N 62°17' W 008°50'1 1.2
2016-Aug-30 03:33N 62°18' W 008°49'1 1.4
2016-Aug-30 02:33N 62°19' W 008°48'1 1.4
2016-Aug-30 01:33N 62°20' W 008°46'2 1.6
2016-Aug-30 00:33N 62°21' W 008°44'2 1.5
2016-Aug-29 23:33N 62°22' W 008°42'1 1.4
2016-Aug-29 22:34N 62°23' W 008°39'1 0.9
2016-Aug-29 21:33N 62°23' W 008°37'1 1.4
2016-Aug-29 20:33N 62°22' W 008°39'1 1.1
2016-Aug-29 19:34N 62°22' W 008°41'2 1.9
2016-Aug-29 18:34N 62°20' W 008°43'2 1.8
2016-Aug-29 17:34N 62°19' W 008°46'2 1.8
2016-Aug-29 16:33N 62°17' W 008°48'5 4.6
2016-Aug-29 15:34N 62°13' W 008°54'1 1.3
2016-Aug-29 14:32N 62°13' W 008°51'1 1.2
2016-Aug-29 13:33N 62°13' W 008°54'2 1.6
2016-Aug-29 12:34N 62°14' W 008°51'2 1.6
2016-Aug-29 11:33N 62°15' W 008°49'1 1.3
2016-Aug-29 10:30N 62°16' W 008°49'4 4.1
2016-Aug-29 09:34N 62°20' W 008°45'2 2.4
2016-Aug-29 08:33N 62°22' W 008°43'9 8.6
2016-Aug-29 07:33N 62°15' W 008°53'2 2.4
2016-Aug-29 06:33N 62°16' W 008°50'6 5.8
2016-Aug-29 05:33N 62°10' W 008°50'2 1.6
2016-Aug-29 04:33N 62°09' W 008°50'2 1.6
2016-Aug-29 03:34N 62°07' W 008°49'2 1.6
2016-Aug-29 02:34N 62°06' W 008°49'2 1.6
2016-Aug-29 01:34N 62°04' W 008°48'3 3.2
2016-Aug-29 00:33N 62°07' W 008°49'4 3.8
2016-Aug-28 23:33N 62°11' W 008°51'0 0.0
2016-Aug-28 22:33N 62°11' W 008°51'1 0.9
2016-Aug-28 21:33N 62°10' W 008°53'1 1.4
2016-Aug-28 20:33N 62°09' W 008°52'1 1.3
2016-Aug-28 19:33N 62°08' W 008°52'1 1.4
2016-Aug-28 18:33N 62°06' W 008°51'1 1.4
2016-Aug-28 17:33N 62°05' W 008°50'2 1.6
2016-Aug-28 16:33N 62°04' W 008°50'2 1.5
2016-Aug-28 15:34N 62°02' W 008°48'2 1.6
2016-Aug-28 14:34N 62°01' W 008°48'2 1.6
2016-Aug-28 13:33N 61°59' W 008°47'1 1.2
2016-Aug-28 12:33N 61°59' W 008°44'1 1.2
2016-Aug-28 11:33N 62°00' W 008°45'2 1.7
2016-Aug-28 10:33N 62°02' W 008°46'1 1.2
2016-Aug-28 09:33N 62°03' W 008°47'7 7.4
2016-Aug-28 08:33N 62°10' W 008°50'5 5.1
2016-Aug-28 07:33N 62°05' W 008°50'7 6.6
2016-Aug-28 06:33N 61°59' W 008°44'1 0.5
2016-Aug-28 05:34N 61°59' W 008°45'3 2.7
2016-Aug-28 04:34N 61°57' W 008°43'2 1.6
2016-Aug-28 03:33N 61°56' W 008°41'2 1.6
2016-Aug-28 02:33N 61°54' W 008°40'2 1.7
2016-Aug-28 01:33N 61°53' W 008°38'2 2.3
2016-Aug-28 00:33N 61°55' W 008°40'0 0.2
2016-Aug-27 23:34N 61°55' W 008°40'1 1.2
2016-Aug-27 22:34N 61°56' W 008°41'2 1.5
2016-Aug-27 21:33N 61°57' W 008°43'1 1.2
2016-Aug-27 20:34N 61°58' W 008°44'1 1.2
2016-Aug-27 19:33N 61°57' W 008°45'1 1.4
2016-Aug-27 18:34N 61°56' W 008°44'1 1.3
2016-Aug-27 17:33N 61°55' W 008°42'2 1.6
2016-Aug-27 16:34N 61°53' W 008°40'2 1.7
2016-Aug-27 15:33N 61°52' W 008°39'2 1.7
2016-Aug-27 14:34N 61°50' W 008°37'2 1.7
2016-Aug-27 13:33N 61°49' W 008°35'2 1.6
2016-Aug-27 12:33N 61°48' W 008°33'1 1.2
2016-Aug-27 11:33N 61°47' W 008°31'1 1.0
2016-Aug-27 10:33N 61°48' W 008°31'1 1.4
2016-Aug-27 09:33N 61°49' W 008°33'2 1.7
2016-Aug-27 08:34N 61°51' W 008°35'4 3.6
2016-Aug-27 07:34N 61°54' W 008°39'4 4.1
2016-Aug-27 06:33N 61°57' W 008°44'8 4.1
2016-Aug-27 04:33N 61°50' W 008°34'6 6.0
2016-Aug-27 03:34N 61°46' W 008°26'9 8.9
2016-Aug-27 02:33N 61°39' W 008°12'9 9.0
2016-Aug-27 01:33N 61°33' W 007°58'8 7.8
2016-Aug-27 00:34N 61°28' W 007°46'1 1.2
2016-Aug-26 23:33N 61°29' W 007°45'2 1.7
2016-Aug-26 22:34N 61°30' W 007°43'2 1.7
2016-Aug-26 21:34N 61°32' W 007°41'1 1.5
2016-Aug-26 20:33N 61°32' W 007°38'1 1.5
2016-Aug-26 19:34N 61°31' W 007°35'1 1.2
2016-Aug-26 18:34N 61°30' W 007°35'2 1.7
2016-Aug-26 17:33N 61°29' W 007°37'1 1.4
2016-Aug-26 16:33N 61°27' W 007°38'1 1.2
2016-Aug-26 15:34N 61°27' W 007°40'1 1.2
2016-Aug-26 14:33N 61°28' W 007°41'2 1.6
2016-Aug-26 13:33N 61°29' W 007°39'2 1.6
2016-Aug-26 12:33N 61°31' W 007°38'1 1.1
2016-Aug-26 11:33N 61°32' W 007°39'2 1.5
2016-Aug-26 10:34N 61°30' W 007°40'2 1.6
2016-Aug-26 09:33N 61°29' W 007°42'1 1.5
2016-Aug-26 08:33N 61°28' W 007°43'2 1.5
2016-Aug-26 07:34N 61°26' W 007°45'4 3.5
2016-Aug-26 06:33N 61°30' W 007°44'2 1.1
2016-Aug-26 04:33N 61°29' W 007°40'2 1.5
2016-Aug-26 03:33N 61°29' W 007°43'2 1.9
2016-Aug-26 02:33N 61°28' W 007°47'1 0.5
2016-Aug-26 01:33N 61°28' W 007°47'1 1.0
2016-Aug-26 00:34N 61°28' W 007°46'2 1.5
2016-Aug-25 23:34N 61°27' W 007°43'2 1.6
2016-Aug-25 22:33N 61°26' W 007°41'2 1.5
2016-Aug-25 21:33N 61°25' W 007°38'1 1.3
2016-Aug-25 20:33N 61°24' W 007°36'1 0.9
2016-Aug-25 19:33N 61°24' W 007°34'2 1.6
2016-Aug-25 18:34N 61°23' W 007°31'2 1.6
2016-Aug-25 17:33N 61°22' W 007°29'1 1.5
2016-Aug-25 16:33N 61°22' W 007°26'1 1.2
2016-Aug-25 15:33N 61°23' W 007°26'1 1.5
2016-Aug-25 14:33N 61°24' W 007°29'1 1.5
2016-Aug-25 13:33N 61°24' W 007°32'2 1.6
2016-Aug-25 12:33N 61°25' W 007°34'1 1.4
2016-Aug-25 11:34N 61°26' W 007°37'1 1.4
2016-Aug-25 10:33N 61°27' W 007°39'2 1.6
2016-Aug-25 09:33N 61°28' W 007°42'2 1.6
2016-Aug-25 08:33N 61°29' W 007°45'2 1.7
2016-Aug-25 07:33N 61°29' W 007°48'4 3.9
2016-Aug-25 06:33N 61°27' W 007°42'4 2.0
2016-Aug-25 04:33N 61°25' W 007°34'8 7.8
2016-Aug-25 03:34N 61°29' W 007°48'3 2.9
2016-Aug-25 02:34N 61°27' W 007°52'1 1.1
2016-Aug-25 01:33N 61°27' W 007°50'1 1.4
2016-Aug-25 00:33N 61°27' W 007°47'1 1.3
2016-Aug-24 23:33N 61°27' W 007°44'1 1.4
2016-Aug-24 22:33N 61°26' W 007°42'1 1.4
2016-Aug-24 21:34N 61°25' W 007°39'1 1.3
2016-Aug-24 20:33N 61°24' W 007°37'1 0.8
2016-Aug-24 19:34N 61°24' W 007°39'1 1.3
2016-Aug-24 18:34N 61°24' W 007°41'1 1.4
2016-Aug-24 17:33N 61°25' W 007°44'1 1.4
2016-Aug-24 16:33N 61°26' W 007°47'2 1.5
2016-Aug-24 15:34N 61°27' W 007°49'1 1.3
2016-Aug-24 14:34N 61°28' W 007°51'7 7.3
2016-Aug-24 13:33N 61°24' W 007°38'7 7.1
2016-Aug-24 12:33N 61°28' W 007°50'8 8.1
2016-Aug-24 11:34N 61°35' W 007°53'7 7.3
2016-Aug-24 10:34N 61°42' W 007°57'8 7.5
2016-Aug-24 09:34N 61°50' W 008°02'1 0.9
2016-Aug-24 08:33N 61°50' W 008°01'0 0.2
2016-Aug-24 07:34N 61°50' W 008°01'0 0.3
2016-Aug-24 06:33N 61°50' W 008°01'0 0.2
2016-Aug-24 04:33N 61°50' W 008°01'0 0.4
2016-Aug-24 03:34N 61°50' W 008°01'1 0.6
2016-Aug-24 02:34N 61°50' W 008°00'0 0.3
2016-Aug-24 01:33N 61°50' W 008°00'1 0.5
2016-Aug-24 00:34N 61°50' W 008°02'2 2.0
2016-Aug-23 23:34N 61°50' W 007°57'8 7.7
2016-Aug-23 22:33N 61°52' W 007°41'8 7.9
2016-Aug-23 21:34N 61°54' W 007°25'8 8.1
2016-Aug-23 20:34N 61°55' W 007°08'9 8.6
2016-Aug-23 19:33N 61°55' W 006°50'5 5.4
2016-Aug-23 18:33N 62°00' W 006°46'0 0.0
2016-Aug-23 17:34N 62°00' W 006°46'0 0.0
2016-Aug-23 16:33N 62°00' W 006°46'0 0.0
2016-Aug-23 15:33N 62°00' W 006°46'0 0.0
2016-Aug-23 14:33N 62°00' W 006°46'0 0.0
2016-Aug-23 13:33N 62°00' W 006°46'0 0.0
2016-Aug-23 12:34N 62°00' W 006°46'0 0.2
2016-Aug-23 11:33N 62°00' W 006°46'0 0.0
2016-Aug-23 10:33N 62°00' W 006°46'0 0.0
2016-Aug-23 09:33N 62°00' W 006°46'0 0.0
2016-Aug-23 08:34N 62°00' W 006°46'0 0.0
2016-Aug-23 07:34N 62°00' W 006°46'0 0.0
2016-Aug-23 06:33N 62°00' W 006°46'0 0.0
2016-Aug-23 05:34N 62°00' W 006°46'0 0.0
2016-Aug-23 04:33N 62°00' W 006°46'0 0.0
2016-Aug-23 03:33N 62°00' W 006°46'0 0.0
2016-Aug-23 02:33N 62°00' W 006°46'0 0.0
2016-Aug-23 01:33N 62°00' W 006°46'0 0.0
2016-Aug-23 00:33N 62°00' W 006°46'0 0.0
2016-Aug-22 23:33N 62°00' W 006°46'0 0.0
2016-Aug-22 22:34N 62°00' W 006°46'0 0.0
2016-Aug-22 21:33N 62°00' W 006°46'0 0.0
2016-Aug-22 20:33N 62°00' W 006°46'0 0.0
2016-Aug-22 19:34N 62°00' W 006°46'0 0.0
2016-Aug-22 18:34N 62°00' W 006°46'0 0.0
2016-Aug-22 17:33N 62°00' W 006°46'0 0.0
2016-Aug-22 16:34N 62°00' W 006°46'0 0.0
2016-Aug-22 15:33N 62°00' W 006°46'0 0.0
2016-Aug-22 14:33N 62°00' W 006°46'0 0.0
2016-Aug-22 13:33N 62°00' W 006°46'0 0.0
2016-Aug-22 12:33N 62°00' W 006°46'0 0.0
2016-Aug-22 11:33N 62°00' W 006°46'0 0.0
2016-Aug-22 10:33N 62°00' W 006°46'0 0.0
2016-Aug-22 09:33N 62°00' W 006°46'  

Dump ship's entire track history